WXM80 ListenWXM80 Stop

You find our weather info also at:

UK Metoffice

WeatherCloud

Weather Underground

Northeastern Weather Network

AWEKAS

Citizen Weather Observer Program (CWOP)

HAMweather, WeatherForYou, PWS Weather


Weather Underground History page Text

Daily Summary for February 14, 2017 Units:  Metric    English   Both
« Previous Day
Next Day »
Daily Weekly Monthly Yearly Custom
  High: Low: Average:
Temperature: 4.2 °C -2.3 °C 0.6 °C
Dew Point: 0.4 °C -6.3 °C -4.1 °C
Humidity: 90 % 55 % 72 %
Wind Speed: 12.4 km/h 0 km/h 4.5 km/h
Wind Gust: 16.7 km/h - -
Wind:- - WSW
Pressure: 1014.4 hPa 1005.6 hPa -
Precipitation: 0 mm    
Historical Graphs
 
 
Tabular Data for February 14, 2017
Time Temperature Dew Point Pressure Wind Wind Speed Wind Gust Humidity Rainfall Rate (Hourly)
00:03 -1.3 °C -5.7 °C 1013.4 hPa NNW 6.3 km/h 12.9 km/h 72 % 0 mm
00:08 -1.4 °C -5.9 °C 1013.8 hPa NNW 6.6 km/h 14.8 km/h 71 % 0 mm
00:13 -1.4 °C -5.8 °C 1013.8 hPa NNW 2.7 km/h 8 km/h 72 % 0 mm
00:18 -1.4 °C -5.8 °C 1013.8 hPa NNW 6 km/h 11.1 km/h 72 % 0 mm
00:23 -1.4 °C -6 °C 1013.8 hPa North 5.6 km/h 6.4 km/h 71 % 0 mm
00:28 -1.4 °C -5.8 °C 1013.8 hPa NNW 4.2 km/h 14.8 km/h 72 % 0 mm
00:33 -1.5 °C -5.9 °C 1013.8 hPa NNW 4.8 km/h 14.5 km/h 72 % 0 mm
00:38 -1.5 °C -5.9 °C 1013.8 hPa NNW 3.2 km/h 11.3 km/h 72 % 0 mm
00:43 -1.5 °C -5.9 °C 1013.8 hPa NNW 4.8 km/h 11.3 km/h 72 % 0 mm
00:48 -1.6 °C -5.9 °C 1013.4 hPa NNW 3.2 km/h 12.9 km/h 72 % 0 mm
00:53 -1.6 °C -5.9 °C 1013.4 hPa North 4.8 km/h 9.7 km/h 72 % 0 mm
00:58 -1.6 °C -6 °C 1013.4 hPa North 2.9 km/h 5.6 km/h 72 % 0 mm
01:03 -1.6 °C -5.8 °C 1013.4 hPa North 5.1 km/h 9.7 km/h 73 % 0 mm
01:08 -1.7 °C -5.9 °C 1013.4 hPa North 3.2 km/h 11.3 km/h 73 % 0 mm
01:13 -1.7 °C -5.9 °C 1013.1 hPa North 8.5 km/h 11.1 km/h 73 % 0 mm
01:18 -1.7 °C -5.9 °C 1013.1 hPa North 4.8 km/h 14.5 km/h 73 % 0 mm
01:23 -1.7 °C -5.9 °C 1013.4 hPa North 9.7 km/h 16.1 km/h 73 % 0 mm
01:28 -1.7 °C -5.9 °C 1013.4 hPa North 3.2 km/h 11.3 km/h 73 % 0 mm
01:33 -1.7 °C -5.9 °C 1013.4 hPa North 4.8 km/h 12.9 km/h 73 % 0 mm
01:38 -1.7 °C -5.9 °C 1013.4 hPa North 3.2 km/h 12.9 km/h 73 % 0 mm
01:43 -1.7 °C -5.9 °C 1013.4 hPa NE 6.4 km/h 9.7 km/h 73 % 0 mm
01:48 -1.7 °C -5.9 °C 1013.4 hPa North 4.8 km/h 9.7 km/h 73 % 0 mm
01:53 -1.7 °C -5.9 °C 1013.4 hPa NNW 8 km/h 14.5 km/h 73 % 0 mm
01:58 -1.7 °C -5.9 °C 1013.4 hPa North 6.1 km/h 9.7 km/h 73 % 0 mm
02:03 -1.7 °C -5.9 °C 1013.4 hPa NNW 1.3 km/h 7.4 km/h 73 % 0 mm
02:08 -1.7 °C -5.9 °C 1013.4 hPa NW 0.3 km/h 3.7 km/h 73 % 0 mm
02:14 -1.7 °C -5.9 °C 1013.4 hPa NNW 7.4 km/h 9.3 km/h 73 % 0 mm
02:19 -1.7 °C -5.9 °C 1013.4 hPa North 4.7 km/h 9.3 km/h 73 % 0 mm
02:24 -1.7 °C -5.9 °C 1013.8 hPa North 4.7 km/h 9.3 km/h 73 % 0 mm
02:29 -1.7 °C -5.7 °C 1013.8 hPa North 5.6 km/h 9.3 km/h 74 % 0 mm
02:34 -1.7 °C -5.9 °C 1013.8 hPa NNW 6.6 km/h 11.1 km/h 73 % 0 mm
02:39 -1.7 °C -5.9 °C 1013.8 hPa North 5 km/h 12.9 km/h 73 % 0 mm
02:44 -1.7 °C -5.9 °C 1013.4 hPa NNW 3.7 km/h 9.7 km/h 73 % 0 mm
02:49 -1.7 °C -5.9 °C 1013.8 hPa North 3.7 km/h 7.4 km/h 73 % 0 mm
02:54 -1.8 °C -5.8 °C 1013.4 hPa NNE 6.3 km/h 6.3 km/h 74 % 0 mm
02:59 -1.8 °C -5.8 °C 1013.4 hPa North 7.1 km/h 12.9 km/h 74 % 0 mm
03:04 -1.8 °C -6 °C 1013.4 hPa NNE 4 km/h 11.1 km/h 73 % 0 mm
03:09 -1.8 °C -5.8 °C 1013.4 hPa North 6.4 km/h 13 km/h 74 % 0 mm
03:14 -1.8 °C -5.8 °C 1013.1 hPa NNE 10 km/h 14.5 km/h 74 % 0 mm
03:19 -1.9 °C -6.1 °C 1013.4 hPa NNE 10.3 km/h 14.8 km/h 73 % 0 mm
03:24 -1.9 °C -5.9 °C 1013.4 hPa North 4.5 km/h 13 km/h 74 % 0 mm
03:29 -1.9 °C -5.9 °C 1013.4 hPa North 8.9 km/h 13 km/h 74 % 0 mm
03:34 -1.9 °C -5.9 °C 1013.4 hPa NNE 6.9 km/h 11.1 km/h 74 % 0 mm
03:39 -2 °C -6 °C 1013.4 hPa NNE 8.2 km/h 16.7 km/h 74 % 0 mm
03:44 -2 °C -6 °C 1013.4 hPa NNE 12.4 km/h 16.7 km/h 74 % 0 mm
03:50 -1.9 °C -6.2 °C 1013.4 hPa North 4.2 km/h 7.4 km/h 73 % 0 mm
03:55 -1.9 °C -5.9 °C 1013.4 hPa NNW 3.2 km/h 7.4 km/h 74 % 0 mm
04:00 -1.9 °C -5.9 °C 1013.4 hPa North 7.9 km/h 13 km/h 74 % 0 mm
04:05 -2 °C -6 °C 1013.4 hPa NNW 5.5 km/h 11.1 km/h 74 % 0 mm
04:10 -2.1 °C -6.1 °C 1013.1 hPa North 5.8 km/h 13 km/h 74 % 0 mm
04:15 -2.1 °C -6.1 °C 1013.4 hPa NNE 6 km/h 7.4 km/h 74 % 0 mm
04:20 -2.1 °C -6.1 °C 1013.4 hPa NNW 5.8 km/h 7.4 km/h 74 % 0 mm
04:25 -2.1 °C -6.1 °C 1013.4 hPa North 2.3 km/h 6.4 km/h 74 % 0 mm
04:30 -2.1 °C -6.1 °C 1013.4 hPa NNE 3.2 km/h 6.4 km/h 74 % 0 mm
04:35 -2.1 °C -5.9 °C 1013.1 hPa NNE 5.1 km/h 9.3 km/h 75 % 0 mm
04:40 -2.2 °C -6 °C 1013.1 hPa North 8 km/h 14.8 km/h 75 % 0 mm
04:45 -2.2 °C -6.2 °C 1013.4 hPa North 3.9 km/h 9.3 km/h 74 % 0 mm
04:50 -2.2 °C -6.2 °C 1013.4 hPa NNE 5.1 km/h 7.4 km/h 74 % 0 mm
04:55 -2.2 °C -6.2 °C 1013.8 hPa North 5.6 km/h 11.1 km/h 74 % 0 mm
05:01 -2.2 °C -6.2 °C 1013.8 hPa NW 3.7 km/h 5.6 km/h 74 % 0 mm
05:06 -2.2 °C -6.1 °C 1013.4 hPa North 4.2 km/h 8 km/h 75 % 0 mm
05:11 -2.3 °C -6.3 °C 1013.8 hPa NNW 1 km/h 3.7 km/h 74 % 0 mm
05:16 -2.3 °C -6.1 °C 1013.8 hPa NNW 3.4 km/h 5.6 km/h 75 % 0 mm
05:21 -2.3 °C -6.1 °C 1013.8 hPa NW 3.1 km/h 9.3 km/h 75 % 0 mm
05:26 -2.3 °C -6.1 °C 1013.8 hPa WNW 4.7 km/h 6.4 km/h 75 % 0 mm
05:31 -2.3 °C -6.2 °C 1013.8 hPa North 2.3 km/h 5.6 km/h 75 % 0 mm
05:36 -2.3 °C -6.2 °C 1013.8 hPa NNW 5 km/h 5.6 km/h 75 % 0 mm
05:41 -2.3 °C -6.2 °C 1013.4 hPa NNW 3.5 km/h 5.6 km/h 75 % 0 mm
05:46 -2.3 °C -6.1 °C 1013.4 hPa Calm   7.4 km/h 75 % 0 mm
05:51 -2.3 °C -6.1 °C 1013.8 hPa NNW 3.5 km/h 9.3 km/h 75 % 0 mm
05:56 -2.3 °C -6.2 °C 1013.8 hPa NNE 6.4 km/h 11.1 km/h 75 % 0 mm
06:01 -2.3 °C -6.2 °C 1013.8 hPa NNW 3.4 km/h 9.7 km/h 75 % 0 mm
06:06 -2.3 °C -6.2 °C 1013.8 hPa NNW 4.5 km/h 5.6 km/h 75 % 0 mm
06:12 -2.3 °C -6.2 °C 1013.8 hPa NNW 1.6 km/h 8 km/h 75 % 0 mm
06:17 -2.3 °C -6.1 °C 1013.8 hPa NNW 5.5 km/h 7.4 km/h 75 % 0 mm
06:22 -2.3 °C -6.2 °C 1013.8 hPa North 4.3 km/h 9.3 km/h 75 % 0 mm
06:27 -2.3 °C -6.2 °C 1013.8 hPa NNW 6 km/h 7.4 km/h 75 % 0 mm
06:32 -2.3 °C -6.1 °C 1013.8 hPa NW 5.3 km/h 9.7 km/h 75 % 0 mm
06:37 -2.2 °C -5.9 °C 1013.8 hPa NNW 5.5 km/h 9.7 km/h 76 % 0 mm
06:42 -2.2 °C -6.1 °C 1014.1 hPa NW 0.5 km/h 5.6 km/h 75 % 0 mm
06:47 -2.2 °C -5.8 °C 1013.8 hPa NNW 4.2 km/h 7.4 km/h 76 % 0 mm
06:52 -2.1 °C -5.8 °C 1013.8 hPa NW 5.1 km/h 7.4 km/h 76 % 0 mm
06:58 -2.1 °C -5.7 °C 1014.1 hPa NNE 4.7 km/h 9.7 km/h 76 % 0 mm
07:03 -2.1 °C -5.7 °C 1014.1 hPa NNW 0.5 km/h 3.7 km/h 76 % 0 mm
07:08 -1.9 °C -5.6 °C 1014.1 hPa NW 5 km/h 7.4 km/h 76 % 0 mm
07:13 -1.8 °C -5.5 °C 1014.1 hPa North 3.9 km/h 11.1 km/h 76 % 0 mm
07:18 -1.8 °C -5.4 °C 1014.1 hPa NNW 3.4 km/h 6.4 km/h 76 % 0 mm
07:23 -1.7 °C -5.6 °C 1014.4 hPa NW 3.7 km/h 5.6 km/h 75 % 0 mm
07:28 -1.6 °C -5.3 °C 1014.1 hPa NW 5.1 km/h 11.3 km/h 76 % 0 mm
07:33 -1.6 °C -5.4 °C 1014.1 hPa NW 0.2 km/h 3.7 km/h 75 % 0 mm
07:38 -1.5 °C -5.3 °C 1014.4 hPa NW 3.2 km/h 5.6 km/h 75 % 0 mm
07:43 -1.4 °C -5.3 °C 1014.4 hPa North 3.2 km/h 5.6 km/h 75 % 0 mm
07:48 -1.3 °C -5.4 °C 1014.4 hPa NW 4.8 km/h 5.6 km/h 74 % 0 mm
07:53 -1.3 °C -5.4 °C 1014.4 hPa West 4.2 km/h 5.6 km/h 74 % 0 mm
07:58 -1.2 °C -5.4 °C 1014.4 hPa Calm   5.6 km/h 73 % 0 mm
08:03 -1.2 °C -5.2 °C 1014.4 hPa Calm   1.9 km/h 74 % 0 mm
08:08 -1.1 °C -5.2 °C 1014.4 hPa WNW 1.4 km/h 5.6 km/h 74 % 0 mm
08:13 -1.1 °C -4.9 °C 1014.4 hPa WNW 3.4 km/h 9.7 km/h 75 % 0 mm
08:19 -1 °C -5.1 °C 1014.1 hPa WNW 4.3 km/h 6.4 km/h 74 % 0 mm
08:24 -1 °C -5.1 °C 1014.4 hPa WNW 1.3 km/h 5.6 km/h 74 % 0 mm
08:29 -0.9 °C -5 °C 1014.1 hPa West 3.1 km/h 5.6 km/h 74 % 0 mm
08:34 -0.9 °C -4.8 °C 1014.4 hPa WNW 4.5 km/h 5.6 km/h 75 % 0 mm
08:39 -0.8 °C -4.7 °C 1014.1 hPa WNW 4.8 km/h 9.3 km/h 75 % 0 mm
08:44 -0.7 °C -4.6 °C 1014.1 hPa WNW 4.7 km/h 5.6 km/h 75 % 0 mm
08:49 -0.6 °C -4.4 °C 1014.1 hPa West 4.2 km/h 7.4 km/h 75 % 0 mm
08:54 -0.4 °C -4.5 °C 1014.1 hPa WNW 3.7 km/h 7.4 km/h 74 % 0 mm
08:59 -0.3 °C -4.6 °C 1014.1 hPa NNW 6 km/h 14.8 km/h 73 % 0 mm
09:04 -0.2 °C -4.5 °C 1013.4 hPa NW 0.5 km/h 3.7 km/h 73 % 0 mm
09:10 -0.2 °C -4.8 °C 1013.4 hPa West 2.1 km/h 5.6 km/h 71 % 0 mm
09:15 0 °C -4.6 °C 1013.4 hPa Calm   5.6 km/h 71 % 0 mm
09:20 0.1 °C -4.6 °C 1013.4 hPa NW 1.8 km/h 5.6 km/h 71 % 0 mm
09:25 0.2 °C -4.7 °C 1013.1 hPa WNW 5.6 km/h 6.4 km/h 70 % 0 mm
09:30 0.3 °C -4.7 °C 1013.4 hPa NW 1.3 km/h 3.7 km/h 69 % 0 mm
09:35 0.3 °C -4.9 °C 1013.1 hPa NW 3.7 km/h 6.4 km/h 68 % 0 mm
09:40 0.3 °C -4.9 °C 1013.1 hPa WNW 7.9 km/h 9.3 km/h 68 % 0 mm
09:45 0.4 °C -4.8 °C 1013.1 hPa WNW 2.7 km/h 5.6 km/h 68 % 0 mm
09:50 0.4 °C -4.8 °C 1013.1 hPa WNW 1 km/h 5.6 km/h 68 % 0 mm
09:55 0.4 °C -4.8 °C 1012.8 hPa West 5 km/h 7.4 km/h 68 % 0 mm
10:00 0.5 °C -4.6 °C 1012.8 hPa NW 2.7 km/h 5.6 km/h 69 % 0 mm
10:05 0.6 °C -4.6 °C 1012.8 hPa NW 3.5 km/h 7.4 km/h 68 % 0 mm
10:10 0.7 °C -4.8 °C 1012.8 hPa West 0.2 km/h 1.9 km/h 67 % 0 mm
10:16 0.8 °C -4.8 °C 1012.8 hPa West 4.7 km/h 7.4 km/h 66 % 0 mm
10:21 0.9 °C -4.6 °C 1012.8 hPa WNW 3.9 km/h 9.3 km/h 67 % 0 mm
10:26 0.9 °C -4.9 °C 1012.8 hPa SW 3.7 km/h 7.4 km/h 65 % 0 mm
10:31 1 °C -4.8 °C 1012.4 hPa SSW 4.2 km/h 7.4 km/h 65 % 0 mm
10:36 1.1 °C -4.8 °C 1012.4 hPa WSW 3.9 km/h 5.6 km/h 65 % 0 mm
10:41 1.2 °C -4.7 °C 1012.8 hPa WSW 3.5 km/h 9.3 km/h 65 % 0 mm
10:46 1.2 °C -4.9 °C 1012.4 hPa WNW 2.6 km/h 5.6 km/h 64 % 0 mm
10:51 1.3 °C -4.7 °C 1012.4 hPa WSW 8 km/h 13 km/h 64 % 0 mm
10:56 1.4 °C -4.7 °C 1012.4 hPa NW 3.9 km/h 8 km/h 64 % 0 mm
11:01 1.3 °C -4.9 °C 1012.4 hPa WNW 3.7 km/h 7.4 km/h 63 % 0 mm
11:06 1.4 °C -4.9 °C 1012.4 hPa West 1.8 km/h 7.4 km/h 63 % 0 mm
11:07 1.4 °C -4.9 °C 1012.4 hPa West 2.1 km/h 5.6 km/h 63 % 0 mm
11:12 1.5 °C -4.8 °C 1012.4 hPa West 3.2 km/h 5.6 km/h 63 % 0 mm
11:17 1.6 °C -4.7 °C 1012.4 hPa SW 5.8 km/h 11.1 km/h 63 % 0 mm
11:22 1.6 °C -4.5 °C 1012.1 hPa West 3.7 km/h 5.6 km/h 64 % 0 mm
11:27 1.6 °C -4.7 °C 1011.7 hPa West 9 km/h 11.3 km/h 63 % 0 mm
11:32 1.5 °C -4.6 °C 1011.7 hPa WSW 4.7 km/h 9.3 km/h 64 % 0 mm
11:37 1.5 °C -4.6 °C 1011.7 hPa SW 6.1 km/h 11.1 km/h 64 % 0 mm
11:42 1.4 °C -4.8 °C 1011.7 hPa West 4.5 km/h 13 km/h 63 % 0 mm
11:47 1.4 °C -4.8 °C 1011.4 hPa WSW 5 km/h 8 km/h 63 % 0 mm
11:52 1.4 °C -4.6 °C 1011.4 hPa WSW 3.5 km/h 9.7 km/h 64 % 0 mm
11:57 1.3 °C -4.9 °C 1011.4 hPa WNW 9.2 km/h 13 km/h 63 % 0 mm
12:02 1.1 °C -4.9 °C 1011.4 hPa WNW 3.7 km/h 9.3 km/h 64 % 0 mm
12:08 0.9 °C -5.1 °C 1011.1 hPa West 7.1 km/h 9.7 km/h 64 % 0 mm
12:13 0.9 °C -4.7 °C 1011.1 hPa WSW 6.9 km/h 11.1 km/h 66 % 0 mm
12:18 1.2 °C -4.7 °C 1010.7 hPa West 9.3 km/h 12.9 km/h 65 % 0 mm
12:23 1.6 °C -4.3 °C 1010.7 hPa WNW 4.7 km/h 11.1 km/h 65 % 0 mm
12:28 1.8 °C -4.3 °C 1010.4 hPa West 7.1 km/h 11.1 km/h 64 % 0 mm
12:33 2.2 °C -4.4 °C 1010.4 hPa West 3.7 km/h 5.6 km/h 62 % 0 mm
12:38 2.3 °C -4.5 °C 1010.4 hPa West 6.9 km/h 9.3 km/h 61 % 0 mm
12:43 2.3 °C -4.5 °C 1010.4 hPa West 4.8 km/h 9.3 km/h 61 % 0 mm
12:48 2.3 °C -4.4 °C 1010 hPa WNW 5.1 km/h 11.1 km/h 61 % 0 mm
12:53 2.4 °C -4.6 °C 1010 hPa WNW 6.8 km/h 13 km/h 60 % 0 mm
12:58 2.4 °C -4.6 °C 1010 hPa WSW 6.4 km/h 14.8 km/h 60 % 0 mm
13:03 2.6 °C -4.6 °C 1009.7 hPa WNW 6.1 km/h 11.1 km/h 59 % 0 mm
13:08 2.8 °C -4.2 °C 1009.7 hPa WNW 4.2 km/h 11.3 km/h 60 % 0 mm
13:13 3 °C -4.4 °C 1009.7 hPa WSW 9.7 km/h 14.5 km/h 58 % 0 mm
13:18 3.2 °C -4.3 °C 1009.7 hPa West 8 km/h 12.9 km/h 58 % 0 mm
13:19 3.2 °C -4.3 °C 1009.7 hPa West 5.1 km/h 9.7 km/h 58 % 0 mm
13:24 3.4 °C -4.3 °C 1009.4 hPa SW 3.5 km/h 13 km/h 57 % 0 mm
13:29 3.4 °C -4.3 °C 1009.4 hPa WSW 9.8 km/h 14.5 km/h 57 % 0 mm
13:34 3.6 °C -4.2 °C 1009.4 hPa WSW 5.5 km/h 9.3 km/h 57 % 0 mm
13:39 3.7 °C -4.3 °C 1009.4 hPa West 11.6 km/h 16.7 km/h 56 % 0 mm
13:44 3.8 °C -4.2 °C 1009.4 hPa WSW 11.6 km/h 14.5 km/h 56 % 0 mm
13:49 3.7 °C -4 °C 1009.4 hPa WSW 6.4 km/h 16.7 km/h 57 % 0 mm
13:54 3.8 °C -4.2 °C 1009.4 hPa SW 10.3 km/h 13 km/h 56 % 0 mm
13:59 3.8 °C -3.9 °C 1009.4 hPa WSW 7.7 km/h 13 km/h 57 % 0 mm
14:04 3.8 °C -3.9 °C 1009.4 hPa WSW 6.9 km/h 9.7 km/h 57 % 0 mm
14:09 4 °C -4 °C 1009.4 hPa NW 2.9 km/h 7.4 km/h 56 % 0 mm
14:14 4.1 °C -4.2 °C 1009.4 hPa WSW 7.2 km/h 9.3 km/h 55 % 0 mm
14:19 4.1 °C -4.1 °C 1009 hPa WNW 1.8 km/h 11.1 km/h 55 % 0 mm
14:24 4.2 °C -4.1 °C 1009 hPa NNW 3.5 km/h 5.6 km/h 55 % 0 mm
14:29 4.2 °C -4.1 °C 1008.7 hPa West 1.4 km/h 7.4 km/h 55 % 0 mm
14:35 4.2 °C -4.1 °C 1008.7 hPa WSW 7.9 km/h 13 km/h 55 % 0 mm
14:40 4.1 °C -3.9 °C 1008.7 hPa West 6.4 km/h 9.3 km/h 56 % 0 mm
14:45 4.1 °C -3.9 °C 1008.7 hPa West 1.1 km/h 5.6 km/h 56 % 0 mm
14:50 4.1 °C -3.7 °C 1008.4 hPa West 6 km/h 11.3 km/h 57 % 0 mm
14:55 4 °C -4 °C 1008.4 hPa SSW 6.3 km/h 13 km/h 56 % 0 mm
15:00 3.8 °C -4.2 °C 1008.4 hPa SW 4 km/h 9.3 km/h 56 % 0 mm
15:05 3.8 °C -3.9 °C 1008.4 hPa WSW 1.6 km/h 3.7 km/h 57 % 0 mm
15:10 3.8 °C -3.9 °C 1008.4 hPa SSW 6 km/h 8 km/h 57 % 0 mm
15:15 3.8 °C -3.9 °C 1008.4 hPa WSW 7.1 km/h 14.8 km/h 57 % 0 mm
15:20 3.8 °C -3.7 °C 1008.4 hPa SW 7.4 km/h 13 km/h 58 % 0 mm
15:25 3.7 °C -3.8 °C 1008.4 hPa SSW 0.3 km/h 5.6 km/h 58 % 0 mm
15:30 3.7 °C -3.6 °C 1008 hPa South 3.2 km/h 5.6 km/h 59 % 0 mm
15:35 3.7 °C -3.8 °C 1008 hPa SW 5.5 km/h 7.4 km/h 58 % 0 mm
15:41 3.6 °C -3.7 °C 1008 hPa SW 5.8 km/h 13 km/h 59 % 0 mm
15:46 3.6 °C -3.5 °C 1008.4 hPa WSW 11.7 km/h 14.8 km/h 60 % 0 mm
15:51 3.6 °C -3.5 °C 1008.4 hPa SW 2.3 km/h 5.6 km/h 60 % 0 mm
15:56 3.6 °C -3.5 °C 1008.4 hPa SSW 5.1 km/h 9.3 km/h 60 % 0 mm
16:01 3.5 °C -3.6 °C 1008.7 hPa SW 7.7 km/h 11.1 km/h 60 % 0 mm
16:06 3.4 °C -3.4 °C 1008.4 hPa SSW 5.3 km/h 11.3 km/h 61 % 0 mm
16:11 3.4 °C -3.4 °C 1007.7 hPa SW 6.4 km/h 11.3 km/h 61 % 0 mm
16:16 3.4 °C -3.4 °C 1008 hPa SSW 9.7 km/h 13 km/h 61 % 0 mm
16:21 3.3 °C -3.3 °C 1008 hPa West 2.6 km/h 6.4 km/h 62 % 0 mm
16:26 3.3 °C -3.6 °C 1008 hPa SW 9.2 km/h 13 km/h 61 % 0 mm
16:31 3.3 °C -3.3 °C 1008 hPa SW 8.5 km/h 8.5 km/h 62 % 0 mm
16:36 3.2 °C -3.4 °C 1008 hPa SSW 5.8 km/h 13 km/h 62 % 0 mm
16:41 3.2 °C -3.2 °C 1008 hPa South 2.3 km/h 9.3 km/h 63 % 0 mm
16:46 3.1 °C -3.3 °C 1008 hPa SW 4.8 km/h 8 km/h 63 % 0 mm
16:52 3.1 °C -3.1 °C 1007.7 hPa South 5.6 km/h 11.3 km/h 64 % 0 mm
16:57 2.9 °C -3.2 °C 1007.7 hPa SW 5.8 km/h 7.4 km/h 64 % 0 mm
17:02 2.8 °C -3.3 °C 1007.7 hPa South 3.5 km/h 7.4 km/h 64 % 0 mm
17:07 2.8 °C -3.4 °C 1007.7 hPa SW 7.4 km/h 9.7 km/h 64 % 0 mm
17:12 2.7 °C -3.3 °C 1008 hPa SW 4.7 km/h 13 km/h 65 % 0 mm
17:17 2.6 °C -3.4 °C 1008 hPa SW 3.7 km/h 5.6 km/h 65 % 0 mm
17:22 2.5 °C -3.4 °C 1007.7 hPa SW 2.3 km/h 5.6 km/h 65 % 0 mm
17:27 2.4 °C -3.3 °C 1007.7 hPa SW 1.1 km/h 5.6 km/h 66 % 0 mm
17:32 2.3 °C -3.4 °C 1007.7 hPa SSW 2.4 km/h 7.4 km/h 66 % 0 mm
17:37 2.2 °C -3.5 °C 1007.7 hPa SSW 3.5 km/h 9.3 km/h 66 % 0 mm
17:42 2.1 °C -3.6 °C 1007.7 hPa SSW 1.3 km/h 5.6 km/h 66 % 0 mm
17:47 2 °C -3.5 °C 1007.7 hPa South 6.4 km/h 9.3 km/h 67 % 0 mm
17:52 1.9 °C -3.4 °C 1008 hPa South 0.8 km/h 5.6 km/h 68 % 0 mm
17:57 1.8 °C -3.4 °C 1008 hPa South 2.9 km/h 6.4 km/h 68 % 0 mm
18:03 1.8 °C -3.3 °C 1008 hPa South 1 km/h 4.8 km/h 69 % 0 mm
18:08 1.7 °C -3.2 °C 1008 hPa Calm   3.2 km/h 70 % 0 mm
18:13 1.6 °C -3.1 °C 1008 hPa Calm   1.9 km/h 71 % 0 mm
18:18 1.5 °C -3.2 °C 1008 hPa SSE 0.5 km/h 5.6 km/h 71 % 0 mm
18:23 1.4 °C -3.2 °C 1008 hPa SSE 0.5 km/h 1.9 km/h 71 % 0 mm
18:28 1.3 °C -3.2 °C 1008 hPa South 0.5 km/h 3.2 km/h 72 % 0 mm
18:33 1.3 °C -3.1 °C 1008.4 hPa South 1.6 km/h 5.6 km/h 73 % 0 mm
18:38 1.2 °C -3.1 °C 1008.4 hPa South 0.3 km/h 3.7 km/h 73 % 0 mm
18:43 1.1 °C -3.2 °C 1008.4 hPa South 0.2 km/h 1.9 km/h 73 % 0 mm
18:48 1 °C -3.1 °C 1008 hPa South 2.7 km/h 5.6 km/h 74 % 0 mm
18:53 0.9 °C -3 °C 1008 hPa South 3.1 km/h 5.6 km/h 75 % 0 mm
18:58 0.8 °C -2.9 °C 1008 hPa South 4 km/h 5.6 km/h 76 % 0 mm
19:03 0.8 °C -2.9 °C 1008.4 hPa South 3.5 km/h 5.6 km/h 76 % 0 mm
19:08 0.8 °C -2.8 °C 1008.4 hPa South 3.9 km/h 5.6 km/h 77 % 0 mm
19:13 0.7 °C -2.9 °C 1008 hPa South 3.4 km/h 5.6 km/h 77 % 0 mm
19:18 0.7 °C -2.8 °C 1008 hPa South 3.2 km/h 8 km/h 78 % 0 mm
19:23 0.6 °C -2.8 °C 1008 hPa South 3.2 km/h 6.4 km/h 78 % 0 mm
19:28 0.5 °C -2.7 °C 1008 hPa South 1.6 km/h 6.4 km/h 79 % 0 mm
19:33 0.4 °C -2.8 °C 1008 hPa South 3.2 km/h 8 km/h 79 % 0 mm
19:38 0.4 °C -2.6 °C 1008 hPa South 1.6 km/h 8 km/h 80 % 0 mm
19:43 0.4 °C -2.5 °C 1008 hPa South 1.6 km/h 8 km/h 81 % 0 mm
19:48 0.4 °C -2.3 °C 1008 hPa South 1.6 km/h 6.4 km/h 82 % 0 mm
19:53 0.4 °C -2.1 °C 1008 hPa South 1.6 km/h 6.4 km/h 83 % 0 mm
19:58 0.4 °C -1.9 °C 1007.7 hPa South 3.9 km/h 7.4 km/h 84 % 0 mm
20:03 0.5 °C -1.9 °C 1007.7 hPa South 3.2 km/h 8 km/h 84 % 0 mm
20:08 0.6 °C -1.7 °C 1007.7 hPa SSW 3.2 km/h 8 km/h 85 % 0 mm
20:13 0.7 °C -1.6 °C 1007.7 hPa SSW 3.2 km/h 6.4 km/h 85 % 0 mm
20:18 0.7 °C -1.3 °C 1007.7 hPa SSW 4.8 km/h 6.4 km/h 86 % 0 mm
20:23 0.8 °C -1.3 °C 1007.7 hPa South 3.2 km/h 6.4 km/h 86 % 0 mm
20:28 0.8 °C -1.3 °C 1007.3 hPa South 1.6 km/h 6.4 km/h 86 % 0 mm
20:33 0.8 °C -1.3 °C 1007.3 hPa South 1.6 km/h 6.4 km/h 86 % 0 mm
20:43 0.8 °C -1.1 °C 1007.7 hPa SSW 1.6 km/h 4.8 km/h 87 % 0 mm
20:48 0.9 °C -1.1 °C 1007.7 hPa SSW 4.8 km/h 11.3 km/h 87 % 0 mm
20:53 0.9 °C -0.8 °C 1007.7 hPa South 5 km/h 6.4 km/h 88 % 0 mm
20:58 1.1 °C -0.7 °C 1007.7 hPa SSW 4.2 km/h 7.4 km/h 88 % 0 mm
21:03 1.1 °C -0.7 °C 1007.7 hPa South 5.8 km/h 9.3 km/h 88 % 0 mm
21:08 1.2 °C -0.6 °C 1007.3 hPa South 5.3 km/h 9.3 km/h 88 % 0 mm
21:13 1.2 °C -0.6 °C 1007.7 hPa SSW 4 km/h 5.6 km/h 88 % 0 mm
21:18 1.2 °C -0.6 °C 1007.7 hPa SSW 2.4 km/h 5.6 km/h 88 % 0 mm
21:24 1.3 °C -0.5 °C 1007.7 hPa South 4 km/h 5.6 km/h 88 % 0 mm
21:29 1.3 °C -0.5 °C 1007.7 hPa South 5.6 km/h 11.1 km/h 88 % 0 mm
21:34 1.3 °C -0.5 °C 1007.7 hPa SSW 3.5 km/h 5.6 km/h 88 % 0 mm
21:39 1.3 °C -0.3 °C 1007.7 hPa South 5.5 km/h 11.1 km/h 89 % 0 mm
21:44 1.3 °C -0.3 °C 1007.7 hPa SSW 5.5 km/h 8 km/h 89 % 0 mm
21:49 1.4 °C -0.2 °C 1007.3 hPa South 3.4 km/h 6.4 km/h 89 % 0 mm
21:54 1.4 °C -0.2 °C 1007.3 hPa South 3.1 km/h 8 km/h 89 % 0 mm
21:59 1.5 °C -0.1 °C 1007.3 hPa SSW 3.7 km/h 5.6 km/h 89 % 0 mm
22:04 1.6 °C 0.1 °C 1007 hPa SSW 4.5 km/h 7.4 km/h 90 % 0 mm
22:09 1.6 °C 0.2 °C 1007 hPa South 6.4 km/h 13 km/h 90 % 0 mm
22:14 1.7 °C 0.2 °C 1007 hPa South 6.4 km/h 7.4 km/h 90 % 0 mm
22:19 1.7 °C 0.3 °C 1006.7 hPa South 7.7 km/h 9.7 km/h 90 % 0 mm
22:24 1.8 °C 0.3 °C 1006.7 hPa South 3.7 km/h 7.4 km/h 90 % 0 mm
22:29 1.8 °C 0.3 °C 1006.7 hPa South 3.4 km/h 5.6 km/h 90 % 0 mm
22:34 1.8 °C 0.3 °C 1007 hPa South 5.5 km/h 9.3 km/h 90 % 0 mm
22:39 1.8 °C 0.3 °C 1006.7 hPa South 3.4 km/h 6.4 km/h 90 % 0 mm
22:44 1.8 °C 0.4 °C 1006.7 hPa South 6.1 km/h 7.4 km/h 90 % 0 mm
22:49 1.8 °C 0.4 °C 1006.7 hPa South 2.4 km/h 9.3 km/h 90 % 0 mm
22:54 1.8 °C 0.4 °C 1006.3 hPa South 6 km/h 7.4 km/h 90 % 0 mm
22:59 1.8 °C 0.4 °C 1006.3 hPa SSW 4.2 km/h 8 km/h 90 % 0 mm
23:04 1.8 °C 0.4 °C 1006.3 hPa South 5.5 km/h 9.7 km/h 90 % 0 mm
23:09 1.8 °C 0.4 °C 1006.3 hPa SSW 5 km/h 11.1 km/h 90 % 0 mm
23:14 1.8 °C 0.4 °C 1006.3 hPa South 4.5 km/h 7.4 km/h 90 % 0 mm
23:19 1.8 °C 0.4 °C 1006.3 hPa SW 5.6 km/h 9.3 km/h 90 % 0 mm
23:24 1.8 °C 0.4 °C 1006 hPa South 4.2 km/h 7.4 km/h 90 % 0 mm
23:29 1.8 °C 0.4 °C 1006 hPa South 4 km/h 9.3 km/h 90 % 0 mm
23:34 1.8 °C 0.4 °C 1006 hPa SW 4.3 km/h 7.4 km/h 90 % 0 mm
23:39 1.8 °C 0.4 °C 1006 hPa SSW 6.3 km/h 11.1 km/h 90 % 0 mm
23:44 1.8 °C 0.4 °C 1005.6 hPa SSW 3.4 km/h 5.6 km/h 90 % 0 mm
23:49 1.8 °C 0.4 °C 1005.6 hPa SSW 4.2 km/h 7.4 km/h 90 % 0 mm
23:54 1.9 °C 0.4 °C 1005.6 hPa South 6.4 km/h 12.9 km/h 90 % 0 mm
Crab Meadow Weather
Compliments of Weather Underground - 3 mb

Script developed by  Jim McMurry - jmcmurry@mwt.net Adapted for the template by  Wim van der Kuil - Leuven-Template.eu

Weather Terms: Heavy Sleet Warning - Accumulations of 1/2 inch or more of sleet.